Weather History for Daviess Cnty AP, Washington,, IN

Change the Weather History Date:

Friday, August 29, 2014

  Actual Average (KLWV) Record (KLWV)
Temperature  
Mean Temperature 80 °F 75 °F  
Max Temperature 88 °F 87 °F 96 °F (2010)
Min Temperature 72 °F 63 °F 52 °F (1992)
Degree Days  
Heating Degree Days 0 0  
Month to date heating degree days 0  
Since 1 June heating degree days 7  
Since 1 July heating degree days 0  
Cooling Degree Days 15 10  
Month to date cooling degree days 334  
Year to date cooling degree days 1161  
Since 1 June cooling degree days 1022  
Growing Degree Days 30 (Base 50)    
Moisture  
Dew Point 73 °F    
Average Humidity 82    
Maximum Humidity 100    
Minimum Humidity 55    
Precipitation  
Precipitation 0.00 in 0.10 in 0.89 in (1977)
Month to date precipitation 3.19  
Year to date precipitation 29.15  
Sea Level Pressure  
Sea Level Pressure 29.98 in    
Wind  
Wind Speed 4 mph (SSE)    
Max Wind Speed 12 mph    
Max Gust Speed 17 mph    
Visibility 9 miles    
Events      
T = Trace of Precipitation, MM = Missing Value Source: NWS Daily Summary

Daily Weather History Graph

Daily Weather History Graph

Search for Another Location

Airport:

Trip Planner

Search our weather history database for the weather conditions in past years. The results will help you decide how hot, cold, wet, or windy it might be!

Date:

Astronomy

Aug. 29, 2014 Rise Set
Actual Time 7:14 AM EDT 8:23 PM EDT
Civil Twilight 6:47 AM EDT 8:50 PM EDT
Nautical Twilight 6:14 AM EDT 9:23 PM EDT
Astronomical Twilight 5:40 AM EDT 9:57 PM EDT
Moon 11:01 AM EDT (8/29) 10:23 PM EDT (8/29)
Length of Visible Light 14h 02m
Length of Day
13h 08m
Waxing Crescent, 15% of the Moon is Illuminated
Aug 29
Waxing Crescent
Sep 2
First Quarter
Sep 8
Full
Sep 15
Last Quarter
Sep 24
New

Hourly Weather History & Observations

Time (EDT) Temp. Heat Index Dew Point Humidity Pressure Visibility Wind Dir Wind Speed Gust Speed Precip Events Conditions
12:15 AM 73.6 °F - 73.6 °F 100% 30.02 in 10.0 mi North 3.5 mph - N/A   Clear
12:35 AM 74.5 °F - 74.3 °F 99% 30.02 in 10.0 mi Calm Calm - N/A   Clear
12:55 AM 73.8 °F - 73.8 °F 100% 30.02 in 7.0 mi Calm Calm - N/A   Scattered Clouds
1:15 AM 73.8 °F - 73.8 °F 100% 30.02 in 7.0 mi Calm Calm - N/A   Scattered Clouds
1:35 AM 74.3 °F - 74.3 °F 100% 30.01 in 7.0 mi Calm Calm - N/A   Clear
1:55 AM 74.8 °F - 73.9 °F 97% 30.01 in 10.0 mi Calm Calm - N/A   Clear
2:15 AM 72.9 °F - 72.7 °F 99% 30.01 in 7.0 mi Calm Calm - N/A   Clear
2:35 AM 73.0 °F - 73.0 °F 100% 30.00 in 7.0 mi Calm Calm - N/A   Clear
2:55 AM 73.4 °F - 73.4 °F 100% 30.00 in 7.0 mi Calm Calm - N/A   Clear
3:15 AM 74.3 °F - 73.0 °F 96% 30.00 in 10.0 mi SSE 3.5 mph - N/A   Clear
3:35 AM 73.9 °F - 73.2 °F 98% 29.99 in 10.0 mi Calm Calm - N/A   Clear
3:55 AM 73.9 °F - 72.7 °F 96% 29.99 in 10.0 mi SE 3.5 mph - N/A   Clear
4:35 AM 73.4 °F - 72.7 °F 98% 29.99 in 10.0 mi SSE 3.5 mph - N/A   Clear
4:55 AM 73.4 °F - 72.9 °F 98% 29.99 in 7.0 mi SE 3.5 mph - N/A   Clear
5:15 AM 73.0 °F - 72.7 °F 99% 29.98 in 7.0 mi SE 3.5 mph - N/A   Clear
5:35 AM 73.4 °F - 72.7 °F 98% 29.99 in 7.0 mi ESE 3.5 mph - N/A   Clear
5:55 AM 73.4 °F - 72.5 °F 97% 29.99 in 7.0 mi East 4.6 mph - N/A   Clear
6:15 AM 72.9 °F - 72.1 °F 98% 29.99 in 7.0 mi ESE 4.6 mph - N/A   Clear
6:35 AM 72.7 °F - 72.1 °F 98% 29.99 in 7.0 mi ESE 5.8 mph - N/A   Clear
6:55 AM 72.5 °F - 72.0 °F 98% 30.00 in 7.0 mi ESE 4.6 mph - N/A   Clear
7:15 AM 72.7 °F - 72.0 °F 98% 30.00 in 7.0 mi ESE 4.6 mph - N/A   Clear
7:35 AM 72.7 °F - 72.1 °F 98% 30.01 in 7.0 mi SE 4.6 mph - N/A   Mostly Cloudy
7:55 AM 72.9 °F - 72.0 °F 97% 30.01 in 7.0 mi ESE 3.5 mph - N/A   Mostly Cloudy
8:15 AM 73.4 °F - 72.1 °F 96% 30.01 in 7.0 mi ESE 3.5 mph - N/A   Overcast
8:35 AM 74.1 °F - 72.3 °F 94% 30.01 in 7.0 mi SE 3.5 mph - N/A   Scattered Clouds
8:55 AM 75.4 °F - 72.1 °F 90% 30.02 in 7.0 mi ESE 6.9 mph - N/A   Clear
9:15 AM 77.0 °F - 72.5 °F 86% 30.02 in 7.0 mi SE 9.2 mph - N/A   Clear
9:35 AM 78.1 °F - 72.7 °F 83% 30.02 in 10.0 mi SSE 9.2 mph - N/A   Clear
9:55 AM 78.8 °F - 72.1 °F 80% 30.02 in 10.0 mi SSE 9.2 mph - N/A   Clear
10:15 AM 79.7 °F - 72.7 °F 79% 30.02 in 10.0 mi SSE 9.2 mph - N/A   Clear
10:35 AM 80.8 °F 85.4 °F 73.0 °F 77% 30.02 in 10.0 mi SSE 8.1 mph - N/A   Clear
10:55 AM 82.2 °F 88.3 °F 74.1 °F 76% 30.02 in 10.0 mi SE 6.9 mph - N/A   Clear
11:15 AM 81.9 °F 87.5 °F 73.8 °F 76% 30.02 in 10.0 mi SSE 6.9 mph - N/A   Scattered Clouds
11:35 AM 82.8 °F 89.0 °F 73.6 °F 74% 30.01 in 10.0 mi SSE 8.1 mph - N/A   Mostly Cloudy
11:55 AM 84.0 °F 91.2 °F 73.9 °F 72% 30.01 in 10.0 mi SSE 9.2 mph - N/A   Scattered Clouds
12:15 PM 84.4 °F 91.7 °F 74.1 °F 71% 30.01 in 10.0 mi South 8.1 mph - N/A   Scattered Clouds
12:35 PM 85.1 °F 94.1 °F 75.4 °F 73% 30.00 in 10.0 mi South 4.6 mph - N/A   Scattered Clouds
12:55 PM 85.3 °F 94.2 °F 75.2 °F 72% 30.00 in 10.0 mi SE 5.8 mph - N/A   Scattered Clouds
1:15 PM 86.4 °F 96.4 °F 76.1 °F 71% 29.99 in 10.0 mi SSE 8.1 mph - N/A   Clear
1:35 PM 86.2 °F 94.2 °F 74.1 °F 67% 29.99 in 10.0 mi South 6.9 mph - N/A   Scattered Clouds
1:55 PM 86.9 °F 96.4 °F 75.0 °F 68% 29.99 in 10.0 mi South 6.9 mph - N/A   Mostly Cloudy
2:15 PM 87.3 °F 95.8 °F 74.1 °F 65% 29.97 in 10.0 mi South 5.8 mph - N/A   Scattered Clouds
2:35 PM 88.3 °F 97.9 °F 74.8 °F 64% 29.97 in 10.0 mi SSE 8.1 mph - N/A   Clear
2:55 PM 87.6 °F 96.2 °F 74.3 °F 64% 29.97 in 10.0 mi SSE 9.2 mph - N/A   Scattered Clouds
3:15 PM 88.0 °F 98.0 °F 75.2 °F 66% 29.96 in 10.0 mi South 6.9 mph - N/A   Scattered Clouds
3:35 PM 88.0 °F 95.1 °F 72.5 °F 60% 29.94 in 10.0 mi South 10.4 mph 16.1 mph N/A   Scattered Clouds
3:55 PM 88.7 °F 96.7 °F 73.4 °F 60% 29.94 in 10.0 mi South 10.4 mph - N/A   Scattered Clouds
4:15 PM 88.7 °F 96.2 °F 72.7 °F 59% 29.93 in 10.0 mi SSE 9.2 mph - N/A   Scattered Clouds
4:35 PM 87.8 °F 93.8 °F 71.2 °F 58% 29.93 in 10.0 mi SSE 10.4 mph 17.3 mph N/A   Clear
4:55 PM 86.9 °F 92.9 °F 71.4 °F 60% 29.92 in 10.0 mi SSE 11.5 mph - N/A   Clear
5:15 PM 87.1 °F 91.3 °F 69.3 °F 55% 29.93 in 10.0 mi South 11.5 mph 17.3 mph N/A   Clear
5:35 PM 86.9 °F 92.1 °F 70.7 °F 58% 29.92 in 10.0 mi South 9.2 mph - N/A   Scattered Clouds
5:55 PM 87.1 °F 94.1 °F 72.7 °F 62% 29.92 in 10.0 mi SW 4.6 mph - N/A   Scattered Clouds
6:15 PM 86.4 °F 92.6 °F 72.1 °F 62% 29.93 in 10.0 mi SSW 6.9 mph - N/A   Clear
6:35 PM 85.8 °F 91.8 °F 72.1 °F 63% 29.93 in 10.0 mi South 4.6 mph - N/A   Clear
6:55 PM 85.5 °F 92.2 °F 72.9 °F 66% 29.94 in 10.0 mi South 4.6 mph - N/A   Clear
7:15 PM 84.4 °F 91.0 °F 73.2 °F 69% 29.93 in 10.0 mi SSE 3.5 mph - N/A   Clear
7:35 PM 84.0 °F 88.7 °F 70.9 °F 64% 29.93 in 10.0 mi South 4.6 mph - N/A   Clear
7:55 PM 81.9 °F 86.2 °F 71.2 °F 70% 29.94 in 10.0 mi South 4.6 mph - N/A   Clear
8:15 PM 79.7 °F - 71.4 °F 76% 29.93 in 10.0 mi SSE 4.6 mph - N/A   Clear
8:35 PM 77.4 °F - 72.5 °F 85% 29.94 in 10.0 mi South 4.6 mph - N/A   Clear
8:55 PM 77.0 °F - 72.5 °F 86% 29.95 in 10.0 mi South 3.5 mph - N/A   Clear
9:15 PM 75.6 °F - 72.1 °F 89% 29.95 in 10.0 mi SSE 5.8 mph - N/A   Clear
9:35 PM 75.2 °F - 71.8 °F 89% 29.95 in 10.0 mi South 4.6 mph - N/A   Clear
9:55 PM 75.4 °F - 71.4 °F 87% 29.95 in 10.0 mi South 4.6 mph - N/A   Clear
10:15 PM 74.5 °F - 70.9 °F 88% 29.96 in 10.0 mi South 5.8 mph - N/A   Clear
10:35 PM 74.7 °F - 70.2 °F 86% 29.96 in 10.0 mi South 5.8 mph - N/A   Clear
10:55 PM 73.9 °F - 69.8 °F 87% 29.96 in 10.0 mi South 5.8 mph - N/A   Clear
11:15 PM 74.3 °F - 69.1 °F 84% 29.97 in 10.0 mi South 5.8 mph - N/A   Clear
11:35 PM 74.1 °F - 68.9 °F 84% 29.97 in 10.0 mi South 5.8 mph - N/A   Scattered Clouds
11:55 PM 73.4 °F - 68.9 °F 86% 29.98 in 10.0 mi South 6.9 mph - N/A   Scattered Clouds